This is the latest recevied weather packets stored in our database for station/object KD4MBW. If no packets are shown the sender has not sent any weather packets the latest 10 day(s).
| Time | Temp. | Humidity | Pressure | Rain* | Wind** | Luminosity | Snow |
|---|---|---|---|---|---|---|---|
| 1787501128 | 33.89° C | 69% | 1016.3 hPa | 0 mm | - | 682 W/m² | - |
| 1787500825 | 33.33° C | 69% | 1016.4 hPa | 0 mm | - | 670 W/m² | - |
| 1787500520 | 33.89° C | 72% | 1016.2 hPa | 0 mm | - | 666 W/m² | - |
| 1787500214 | 33.89° C | 70% | 1016.1 hPa | 0 mm | - | 658 W/m² | - |
| 1787499914 | 33.89° C | 71% | 1016.3 hPa | 0 mm | - | 649 W/m² | - |
| 1787499609 | 33.33° C | 71% | 1016.1 hPa | 0 mm | - | 642 W/m² | - |
| 1787499304 | 33.33° C | 72% | 1016.2 hPa | 0 mm | - | 631 W/m² | - |
| 1787499000 | 32.78° C | 74% | 1016.2 hPa | 0 mm | - | 622 W/m² | - |
| 1787498698 | 32.78° C | 73% | 1016.2 hPa | 0 mm | - | 613 W/m² | - |
| 1787498393 | 32.22° C | 77% | 1016.2 hPa | 0 mm | - | 600 W/m² | - |
| 1787498084 | 32.22° C | 75% | 1016.2 hPa | 0 mm | - | 589 W/m² | - |
| 1787497779 | 32.22° C | 77% | 1016.3 hPa | 0 mm | - | 577 W/m² | - |
| 1787497475 | 32.22° C | 78% | 1016.2 hPa | 0 mm | - | 563 W/m² | - |
| 1787497173 | 32.22° C | 79% | 1016.3 hPa | 0 mm | - | 552 W/m² | - |
| 1787496868 | 31.67° C | 77% | 1016.3 hPa | 0 mm | - | 538 W/m² | - |
| 1787496563 | 31.11° C | 78% | 1016.1 hPa | 0 mm | - | 525 W/m² | - |
| 1787496258 | 31.67° C | 82% | 1016.2 hPa | 0 mm | - | 509 W/m² | - |
| 1787495956 | 31.67° C | 83% | 1016.2 hPa | 0 mm | - | 495 W/m² | - |
| 1787495652 | 31.67° C | 83% | 1016.1 hPa | 0 mm | - | 479 W/m² | - |
| 1787495349 | 31.11° C | 84% | 1016.3 hPa | 0 mm | - | 466 W/m² | - |
| 1787495045 | 31.11° C | 85% | 1016.1 hPa | 0 mm | - | 451 W/m² | - |
| 1787494744 | 30.56° C | 85% | 1016.3 hPa | 0 mm | - | 440 W/m² | - |
| 1787494439 | 30.56° C | 85% | 1016.3 hPa | 0 mm | - | 424 W/m² | - |
| 1787494135 | 30.56° C | 86% | 1016.2 hPa | 0 mm | - | 408 W/m² | - |
| 1787493831 | 30.56° C | 89% | 1016.6 hPa | 0 mm | - | 394 W/m² | - |
* Rain latest hour (hover to see other rain measurements)
** Current wind speed in m/s (hover to see current wind gust speed)